| time (UTC) | temp C | wind direction | speed KPH | gust KPH | rain 1hr cm | rain 24hr cm | rain mn cm | humidity % | barometer mb |
| 20260903152343 | 30 | 172 | 3.2 | 12.9 | 0.00 | 0.10 | 0.05 | 82 | 1014.7 |
| 20260903151328 | 29 | 151 | 3.2 | 6.4 | 0.00 | 0.10 | 0.05 | 83 | 1014.7 |
| 20260903150330 | 29 | 184 | 3.2 | 8.0 | 0.00 | 0.10 | 0.05 | 82 | 1014.7 |
| 20260903145336 | 29 | 171 | 1.6 | 9.7 | 0.00 | 0.10 | 0.05 | 83 | 1014.6 |
| 20260903144340 | 29 | 145 | 3.2 | 8.0 | 0.00 | 0.10 | 0.05 | 82 | 1014.6 |
| 20260903143342 | 30 | 156 | 0.0 | 9.7 | 0.00 | 0.10 | 0.05 | 83 | 1014.6 |
| 20260903142331 | 29 | 187 | 0.0 | 0.0 | 0.00 | 0.10 | 0.05 | 83 | 1014.6 |
| 20260903141337 | 29 | 176 | 0.0 | 0.0 | 0.00 | 0.10 | 0.05 | 84 | 1014.5 |
| 20260903140341 | 28 | 149 | 0.0 | 4.8 | 0.00 | 0.10 | 0.05 | 86 | 1014.5 |
| 20260903135326 | 28 | 131 | 0.0 | 6.4 | 0.00 | 0.10 | 0.05 | 86 | 1014.6 |
| 20260903134330 | 28 | 139 | 1.6 | 4.8 | 0.00 | 0.10 | 0.05 | 87 | 1014.5 |
| 20260903133332 | 28 | 141 | 1.6 | 4.8 | 0.00 | 0.10 | 0.05 | 87 | 1014.4 |
| 20260903132338 | 27 | 151 | 0.0 | 3.2 | 0.00 | 0.10 | 0.05 | 88 | 1014.3 |
| 20260903131328 | 27 | 151 | 0.0 | 0.0 | 0.00 | 0.10 | 0.05 | 88 | 1014.3 |
| 20260903130330 | 27 | 168 | 0.0 | 0.0 | 0.00 | 0.10 | 0.05 | 89 | 1014.2 |
| 20260903125336 | 27 | 185 | 0.0 | 4.8 | 0.00 | 0.10 | 0.05 | 89 | 1014.1 |
| 20260903124343 | 27 | 160 | 0.0 | 3.2 | 0.00 | 0.10 | 0.05 | 89 | 1014.0 |
| 20260903123325 | 27 | 170 | 0.0 | 3.2 | 0.00 | 0.10 | 0.05 | 89 | 1013.9 |
| 20260903122330 | 27 | 157 | 0.0 | 4.8 | 0.00 | 0.10 | 0.05 | 88 | 1013.8 |
| 20260903121335 | 27 | 148 | 0.0 | 3.2 | 0.00 | 0.10 | 0.05 | 88 | 1013.8 |
| 20260903120338 | 27 | 146 | 0.0 | 6.4 | 0.00 | 0.10 | 0.05 | 88 | 1013.7 |
| 20260903115328 | 27 | 159 | 0.0 | 3.2 | 0.00 | 0.10 | 0.05 | 88 | 1013.7 |
| 20260903114332 | 27 | 181 | 0.0 | 3.2 | 0.00 | 0.10 | 0.05 | 88 | 1013.7 |
| 20260903113336 | 27 | 187 | 1.6 | 4.8 | 0.00 | 0.10 | 0.05 | 88 | 1013.6 |
| 20260903112342 | 27 | 139 | 0.0 | 4.8 | 0.00 | 0.10 | 0.05 | 88 | 1013.6 |
| 20260903111327 | 27 | 151 | 1.6 | 3.2 | 0.00 | 0.10 | 0.05 | 87 | 1013.7 |
| 20260903110328 | 27 | 189 | 0.0 | 3.2 | 0.00 | 0.10 | 0.05 | 87 | 1013.8 |
| 20260903105334 | 27 | 146 | 0.0 | 4.8 | 0.00 | 0.10 | 0.00 | 87 | 1013.7 |
| 20260903104405 | 27 | 167 | 0.0 | 3.2 | 0.00 | 0.10 | 0.00 | 87 | 1013.5 |
| 20260903103325 | 27 | 171 | 0.0 | 3.2 | 0.00 | 0.10 | 0.00 | 87 | 1013.5 |
| 20260903102352 | 27 | 111 | 1.6 | 3.2 | 0.00 | 0.10 | 0.00 | 87 | 1013.5 |
| 20260903101356 | 27 | 166 | 0.0 | 1.6 | 0.00 | 0.10 | 0.00 | 87 | 1013.5 |
| 20260903100338 | 27 | 180 | 0.0 | 4.8 | 0.00 | 0.10 | 0.00 | 87 | 1013.4 |
| 20260903095344 | 27 | 172 | 0.0 | 3.2 | 0.00 | 0.10 | 0.00 | 87 | 1013.4 |
| 20260903094329 | 27 | 161 | 1.6 | 8.0 | 0.00 | 0.10 | 0.00 | 87 | 1013.5 |
| 20260903093332 | 27 | 151 | 0.0 | 4.8 | 0.00 | 0.10 | 0.00 | 87 | 1013.5 |
| 20260903092338 | 27 | 139 | 0.0 | 3.2 | 0.00 | 0.10 | 0.00 | 87 | 1013.4 |
| 20260903091328 | 27 | 144 | 0.0 | 3.2 | 0.00 | 0.10 | 0.00 | 87 | 1013.4 |
| 20260903090328 | 27 | 149 | 1.6 | 4.8 | 0.00 | 0.10 | 0.00 | 87 | 1013.3 |
| 20260903085335 | 27 | 129 | 0.0 | 3.2 | 0.00 | 0.10 | 0.00 | 88 | 1013.4 |
| 20260903084341 | 27 | 153 | 1.6 | 4.8 | 0.00 | 0.10 | 0.00 | 88 | 1013.3 |
| 20260903083325 | 27 | 174 | 1.6 | 6.4 | 0.00 | 0.10 | 0.00 | 87 | 1013.3 |
| 20260903082351 | 27 | 129 | 1.6 | 4.8 | 0.00 | 0.10 | 0.00 | 88 | 1013.2 |
| 20260903080337 | 27 | 141 | 3.2 | 4.8 | 0.00 | 0.10 | 0.00 | 88 | 1013.2 |
| 20260903075344 | 27 | 147 | 3.2 | 4.8 | 0.00 | 0.10 | 0.00 | 88 | 1013.2 |
| 20260903074327 | 27 | 145 | 3.2 | 4.8 | 0.00 | 0.10 | 0.00 | 88 | 1013.1 |
| 20260903073332 | 27 | 145 | 3.2 | 6.4 | 0.00 | 0.10 | 0.00 | 88 | 1013.2 |
| 20260903072339 | 27 | 138 | 3.2 | 11.3 | 0.00 | 0.10 | 0.00 | 88 | 1013.2 |
| 20260903071343 | 27 | 140 | 4.8 | 11.3 | 0.00 | 0.10 | 0.00 | 88 | 1013.2 |
| 20260903070324 | 27 | 139 | 4.8 | 8.0 | 0.00 | 0.10 | 0.00 | 88 | 1013.4 |
| 20260903065329 | 27 | 147 | 4.8 | 8.0 | 0.00 | 0.10 | 0.00 | 89 | 1013.5 |
| 20260903064340 | 27 | 126 | 6.4 | 11.3 | 0.00 | 0.10 | 0.00 | 89 | 1013.7 |
| 20260903063342 | 27 | 133 | 3.2 | 6.4 | 0.00 | 0.10 | 0.00 | 89 | 1013.7 |
| 20260903062327 | 27 | 149 | 3.2 | 6.4 | 0.00 | 0.10 | 0.00 | 89 | 1013.8 |
| 20260903061332 | 27 | 136 | 4.8 | 6.4 | 0.00 | 0.10 | 0.00 | 89 | 1013.8 |
| 20260903060335 | 27 | 139 | 4.8 | 11.3 | 0.00 | 0.10 | 0.00 | 89 | 1013.9 |
| 20260903055342 | 27 | 133 | 4.8 | 6.4 | 0.00 | 0.10 | 0.00 | 89 | 1014.1 |
| 20260903054348 | 27 | 137 | 3.2 | 4.8 | 0.00 | 0.10 | 0.00 | 88 | 1014.2 |
| 20260903053327 | 27 | 131 | 0.0 | 4.8 | 0.00 | 0.10 | 0.00 | 88 | 1014.3 |
| 20260903052336 | 27 | 135 | 4.8 | 9.7 | 0.00 | 0.10 | 0.00 | 88 | 1014.3 |
| 20260903051342 | 27 | 133 | 3.2 | 4.8 | 0.00 | 0.10 | 0.00 | 87 | 1014.5 |
| 20260903050403 | 27 | 137 | 3.2 | 4.8 | 0.00 | 0.10 | 0.00 | 87 | 1014.7 |
| 20260903045348 | 27 | 101 | 0.0 | 0.0 | 0.00 | 0.10 | 0.08 | 86 | 1014.9 |
| 20260903044333 | 28 | 5 | 0.0 | 0.0 | 0.00 | 0.10 | 0.08 | 85 | 1015.0 |
| 20260903043336 | 28 | 5 | 0.0 | 0.0 | 0.00 | 0.10 | 0.08 | 83 | 1015.2 |
| 20260903042343 | 28 | 5 | 0.0 | 0.0 | 0.00 | 0.10 | 0.08 | 82 | 1015.3 |
| 20260903041331 | 28 | 5 | 0.0 | 0.0 | 0.00 | 0.10 | 0.08 | 81 | 1015.2 |
| 20260903040333 | 28 | 27 | 0.0 | 0.0 | 0.00 | 0.10 | 0.08 | 80 | 1015.0 |
| 20260903035357 | 28 | 27 | 0.0 | 0.0 | 0.00 | 0.10 | 0.08 | 80 | 1015.0 |
| 20260903034343 | 28 | 27 | 0.0 | 0.0 | 0.00 | 0.10 | 0.08 | 79 | 1014.9 |
| 20260903033346 | 28 | 27 | 0.0 | 0.0 | 0.00 | 0.10 | 0.08 | 78 | 1014.8 |
| 20260903032350 | 28 | 141 | 0.0 | 3.2 | 0.00 | 0.10 | 0.08 | 78 | 1014.6 |
| 20260903031333 | 28 | 141 | 1.6 | 8.0 | 0.00 | 0.10 | 0.08 | 78 | 1014.3 |
| 20260903030336 | 29 | 148 | 3.2 | 8.0 | 0.00 | 0.10 | 0.08 | 77 | 1014.0 |
| 20260903025339 | 29 | 137 | 4.8 | 12.9 | 0.00 | 0.10 | 0.08 | 76 | 1013.4 |
| 20260903024347 | 29 | 147 | 4.8 | 16.1 | 0.00 | 0.10 | 0.08 | 75 | 1013.4 |
| 20260903023348 | 29 | 138 | 6.4 | 19.3 | 0.00 | 0.10 | 0.08 | 74 | 1013.2 |
| 20260903022336 | 30 | 131 | 8.0 | 17.7 | 0.00 | 0.10 | 0.08 | 73 | 1013.1 |
| 20260903021340 | 30 | 142 | 6.4 | 16.1 | 0.00 | 0.10 | 0.08 | 71 | 1012.7 |
| 20260903020342 | 30 | 132 | 4.8 | 16.1 | 0.00 | 0.10 | 0.08 | 70 | 1012.6 |
| 20260903015327 | 30 | 141 | 6.4 | 16.1 | 0.00 | 0.10 | 0.08 | 70 | 1012.4 |
| 20260903014326 | 30 | 129 | 6.4 | 16.1 | 0.00 | 0.10 | 0.08 | 69 | 1012.3 |
| 20260903013330 | 31 | 141 | 6.4 | 19.3 | 0.00 | 0.10 | 0.08 | 68 | 1012.1 |
| 20260903012335 | 31 | 143 | 6.4 | 14.5 | 0.00 | 0.10 | 0.08 | 63 | 1012.1 |
| 20260903011325 | 31 | 144 | 3.2 | 12.9 | 0.00 | 0.10 | 0.08 | 60 | 1012.0 |
| 20260903010327 | 32 | 155 | 4.8 | 14.5 | 0.00 | 0.10 | 0.08 | 58 | 1011.8 |
| 20260903005331 | 32 | 145 | 4.8 | 12.9 | 0.05 | 0.10 | 0.08 | 57 | 1011.8 |
| 20260903004335 | 32 | 141 | 3.2 | 14.5 | 0.05 | 0.10 | 0.08 | 57 | 1011.8 |
| 20260903003339 | 32 | 145 | 8.0 | 16.1 | 0.05 | 0.10 | 0.08 | 56 | 1011.6 |
| 20260903002343 | 33 | 139 | 9.7 | 16.1 | 0.05 | 0.10 | 0.08 | 57 | 1011.2 |
| 20260903001329 | 33 | 144 | 8.0 | 22.5 | 0.05 | 0.10 | 0.08 | 56 | 1011.1 |
| 20260903000332 | 33 | 151 | 4.8 | 19.3 | 0.05 | 0.10 | 0.08 | 55 | 1011.0 |
| 20260902235342 | 33 | 149 | 6.4 | 16.1 | 0.00 | 0.05 | 0.05 | 54 | 1011.0 |
| 20260902234346 | 34 | 144 | 11.3 | 22.5 | 0.00 | 0.05 | 0.05 | 53 | 1010.9 |
| 20260902233344 | 35 | 140 | 4.8 | 14.5 | 0.03 | 0.05 | 0.05 | 54 | 1010.9 |
| 20260902232329 | 35 | 144 | 4.8 | 12.9 | 0.03 | 0.05 | 0.05 | 53 | 1010.9 |
| 20260902231352 | 35 | 155 | 6.4 | 17.7 | 0.05 | 0.05 | 0.05 | 52 | 1010.8 |
| 20260902230332 | 35 | 123 | 3.2 | 16.1 | 0.05 | 0.05 | 0.05 | 53 | 1010.9 |
| 20260902225337 | 35 | 146 | 9.7 | 19.3 | 0.05 | 0.05 | 0.05 | 50 | 1010.9 |
| 20260902224403 | 36 | 145 | 3.2 | 11.3 | 0.05 | 0.05 | 0.05 | 48 | 1010.8 |
| 20260902223343 | 36 | 168 | 1.6 | 6.4 | 0.03 | 0.03 | 0.03 | 46 | 1010.8 |
| 20260902222354 | 36 | 131 | 3.2 | 4.8 | 0.03 | 0.03 | 0.03 | 46 | 1010.8 |
| 20260902221335 | 36 | 183 | 1.6 | 11.3 | 0.00 | 0.00 | 0.00 | 47 | 1011.0 |
| 20260902220359 | 36 | 200 | 1.6 | 11.3 | 0.00 | 0.00 | 0.00 | 48 | 1010.8 |
| 20260902215343 | 36 | 109 | 0.0 | 9.7 | 0.00 | 0.00 | 0.00 | 47 | 1010.9 |
| 20260902214328 | 36 | 146 | 1.6 | 4.8 | 0.00 | 0.00 | 0.00 | 47 | 1010.9 |
| 20260902213331 | 36 | 203 | 1.6 | 4.8 | 0.00 | 0.00 | 0.00 | 47 | 1011.1 |
| 20260902212336 | 36 | 176 | 1.6 | 6.4 | 0.00 | 0.00 | 0.00 | 47 | 1011.2 |
| 20260902211341 | 36 | 142 | 1.6 | 8.0 | 0.00 | 0.00 | 0.00 | 48 | 1011.3 |
| 20260902210327 | 36 | 201 | 1.6 | 8.0 | 0.00 | 0.00 | 0.00 | 49 | 1011.4 |
| 20260902205333 | 35 | 137 | 0.0 | 4.8 | 0.00 | 0.00 | 0.00 | 50 | 1011.4 |
| 20260902204339 | 34 | 174 | 0.0 | 3.2 | 0.00 | 0.00 | 0.00 | 56 | 1011.8 |
| 20260902203342 | 33 | 172 | 1.6 | 4.8 | 0.00 | 0.00 | 0.00 | 59 | 1011.8 |
| 20260902202328 | 31 | 162 | 3.2 | 9.7 | 0.00 | 0.00 | 0.00 | 62 | 1012.0 |
| 20260902201334 | 31 | 44 | 0.0 | 6.4 | 0.00 | 0.00 | 0.00 | 71 | 1012.0 |
| 20260902200341 | 32 | 289 | 3.2 | 6.4 | 0.00 | 0.00 | 0.00 | 66 | 1012.6 |
| 20260902195329 | 33 | 141 | 3.2 | 4.8 | 0.00 | 0.00 | 0.00 | 61 | 1012.5 |
| 20260902194335 | 34 | 147 | 3.2 | 6.4 | 0.00 | 0.00 | 0.00 | 54 | 1012.7 |
| 20260902193336 | 35 | 228 | 1.6 | 4.8 | 0.00 | 0.00 | 0.00 | 52 | 1012.8 |
| 20260902192343 | 35 | 241 | 1.6 | 8.0 | 0.00 | 0.00 | 0.00 | 51 | 1013.0 |
| 20260902191326 | 34 | 176 | 3.2 | 6.4 | 0.00 | 0.00 | 0.00 | 53 | 1013.0 |
| 20260902190331 | 35 | 260 | 0.0 | 3.2 | 0.00 | 0.00 | 0.00 | 56 | 1013.1 |
| 20260902185336 | 35 | 249 | 1.6 | 8.0 | 0.00 | 0.00 | 0.00 | 53 | 1013.3 |
| 20260902184344 | 35 | 284 | 1.6 | 12.9 | 0.00 | 0.00 | 0.00 | 52 | 1013.5 |
| 20260902183328 | 35 | 181 | 1.6 | 6.4 | 0.00 | 0.00 | 0.00 | 52 | 1013.7 |
| 20260902182333 | 34 | 193 | 0.0 | 8.0 | 0.00 | 0.00 | 0.00 | 55 | 1013.9 |
| 20260902181338 | 34 | 237 | 3.2 | 9.7 | 0.00 | 0.00 | 0.00 | 55 | 1014.0 |
| 20260902180324 | 34 | 210 | 3.2 | 6.4 | 0.00 | 0.00 | 0.00 | 56 | 1014.1 |
| 20260902175350 | 34 | 203 | 1.6 | 11.3 | 0.00 | 0.00 | 0.00 | 56 | 1014.4 |
| 20260902174353 | 34 | 193 | 3.2 | 6.4 | 0.00 | 0.00 | 0.00 | 58 | 1014.7 |
| 20260902173334 | 34 | 189 | 3.2 | 9.7 | 0.00 | 0.00 | 0.00 | 55 | 1014.8 |
| 20260902172342 | 33 | 210 | 3.2 | 9.7 | 0.00 | 0.00 | 0.00 | 56 | 1015.0 |
| 20260902171349 | 33 | 195 | 3.2 | 14.5 | 0.00 | 0.00 | 0.00 | 58 | 1015.2 |
| 20260902170351 | 33 | 166 | 4.8 | 12.9 | 0.00 | 0.00 | 0.00 | 58 | 1015.2 |
| 20260902165337 | 32 | 216 | 3.2 | 12.9 | 0.00 | 0.00 | 0.00 | 61 | 1015.4 |
| 20260902164342 | 33 | 168 | 3.2 | 8.0 | 0.00 | 0.00 | 0.00 | 64 | 1015.4 |
| 20260902163347 | 32 | 176 | 3.2 | 14.5 | 0.00 | 0.00 | 0.00 | 63 | 1015.5 |
| 20260902162332 | 32 | 251 | 1.6 | 8.0 | 0.00 | 0.00 | 0.00 | 65 | 1015.6 |
| 20260902161337 | 31 | 261 | 3.2 | 11.3 | 0.00 | 0.00 | 0.00 | 67 | 1015.6 |
| 20260902160403 | 31 | 214 | 3.2 | 6.4 | 0.00 | 0.00 | 0.00 | 66 | 1015.8 |
| 20260902155329 | 31 | 219 | 3.2 | 11.3 | 0.00 | 0.00 | 0.00 | 68 | 1016.0 |
| 20260902154333 | 31 | 248 | 4.8 | 9.7 | 0.00 | 0.00 | 0.00 | 70 | 1015.8 |
| 20260902153337 | 31 | 212 | 3.2 | 8.0 | 0.00 | 0.00 | 0.00 | 71 | 1015.8 |